Regional Weather Roundup
Issued by NWS

Home | Current Version | Previous Version | Text Only | Print | Product List | Glossary Off
Versions: 1 2 3 4 5 6 7 8 9 10 11 12 13 14 15 16 17 18 19 20 21 22 23 24 25 26 27 28 29 30 31 32 33 34 35 36 37 38 39 40 41 42 43 44 45 46 47 48 49 50

000
ASUS45 KBOU 200107
RWRCO

WEATHER ROUNDUP FOR COLORADO
NATIONAL WEATHER SERVICE DENVER/BOULDER CO
600 PM MST THU JAN 19 2017

NOTE: "FAIR" INDICATES FEW OR NO CLOUDS BELOW 12000 FEET WITH NO
SIGNIFICANT WEATHER AND/OR OBSTRUCTIONS TO VISIBILITY.

COZ001>005-013-030-031-200200-
...NORTHWEST COLORADO...

CITY           SKY/WX    TMP DP  RH WIND       PRES   REMARKS
CRAIG          LGT SNOW  27  23  85 CALM      29.72R FOG
HAYDEN         CLOUDY    27  16  63 CALM      29.71R
MEEKER         LGT SNOW  31  30  96 CALM      29.71S FOG
MOUNT WERNER   NOT AVBL
STEAMBOAT SPGS CLOUDY    23  16  74 CALM      29.70S
WALDEN           N/A     28  18  64 S12       29.67S WCI  18
$$

COZ006>008-011-200200-
...WEST CENTRAL VALLEYS...

CITY           SKY/WX    TMP DP  RH WIND       PRES   REMARKS
GRAND JUNCTION LGT SNOW  32  32 100 SE3       29.75S FOG
MONTROSE       LGT SNOW  34  31  88 E3        29.77R FOG
EAGLE          CLOUDY    30  19  64 W3        29.74R
RIFLE          FLURRIES  33  30  88 W5        29.75R WCI  29
DELTA          LGT RAIN  37  34  88 CALM      29.77R
NUCLA          FLURRIES  34  32  93 E3        29.79S
$$

COZ017>023-064>068-200200-
...SOUTHWEST COLORADO...

CITY           SKY/WX    TMP DP  RH WIND       PRES   REMARKS
DURANGO        LGT SNOW  31  28  89 CALM      29.79S FOG
CORTEZ         LGT SNOW  32  32 100 CALM      29.78F VSB 1
PAGOSA SPRINGS LGT SNOW  31  30  98 CALM      29.80S
TELLURIDE      NOT AVBL
WOLF CREEK PAS CLOUDY    14  14 100 SW16G22   29.79S WCI  -2
$$

COZ009-010-012-014-032>034-037-058>063-200200-
...CENTRAL COLORADO...

CITY           SKY/WX    TMP DP  RH WIND       PRES   REMARKS
ASPEN          LGT SNOW  30  21  69 NW10      29.70R WCI  21
BUENA VISTA    FAIR      26  17  66 CALM      29.66S
COPPER MTN     FAIR      19  14  79 MISG      29.71F
BERTHOUD PASS  NOT AVBL
COTTONWOOD PAS MOCLDY    32  16  51 NW9       29.67S WCI  24
GUNNISON       FLURRIES  13   9  84 N5        29.80R WCI   5
KREMMLING      CLOUDY    19  12  73 CALM      29.74S
LEADVILLE      CLOUDY    23  12  62 N14       29.66R WCI  11
MONARCH PASS   CLOUDY    14  10  85 SW10G28   29.81R WCI   1
SALIDA         CLOUDY    35  17  49 SW17G30   29.72R WCI  24
SUNLIGHT       LGT SNOW  19  18  93 SW10G17   29.75S VSB 3/4 WCI   8
WILKERSON PASS MOCLDY    27  12  54 W7        29.70F WCI  19
$$

COZ069>075-200200-
...SAN LUIS VALLEY/SANGRE DE CRISTO MOUNTAINS...

CITY           SKY/WX    TMP DP  RH WIND       PRES   REMARKS
ALAMOSA        CLOUDY    20  19  96 NW6       29.75R WCI  12
LA VETA PASS   FAIR      21  18  86 NE41G49   29.65F WCI   0
SAGUACHE       CLOUDY    23  21  93 CALM      29.75S
$$

COZ035-036-038>040-200200-
...NORTHERN COLORADO FRONT RANGE...

CITY           SKY/WX    TMP DP  RH WIND       PRES   REMARKS
DENVER INTL AP FAIR      35  22  58 SE10      29.52R WCI  27
DMNS CITY PARK   N/A     43  19  37 N12       29.52S
AURORA         PTCLDY    35  23  60 SE9       29.53R WCI  28
FRONT RANGE AP NOT AVBL
ERIE MUNI ARPT FAIR      35  25  65 CALM      29.52S
BOULDER MUN AP FAIR      43  27  52 SW5       29.53R
CENTENNIAL     FAIR      42  19  39 SE7       29.52S
BROOMFIELD     PTCLDY    46  19  34 N3        29.54R
FORT COLLINS   FAIR      39  25  56 E8        29.53R
LONGMONT       FAIR      37  26  62 W7        29.55R
$$

COZ041-046-047-076>085-087-088-200200-
...PIKES PEAK/PALMER DIVIDE AND SOUTHERN FOOTHILLS...

CITY           SKY/WX    TMP DP  RH WIND       PRES   REMARKS
COLO. SPRINGS  FAIR      41  19  41 SE6       29.55S
A. F. ACADEMY  FAIR      41  13  32 S5        29.55R
SCHRIEVER AFB  NOT AVBL
ELLICOTT       FAIR     N/A N/A N/A CALM      29.53F
FALCON         FAIR      34  14  43 W5        29.56F WCI  29
FORT CARSON    CLEAR     43  19  39 W8        29.54F
LIMON          FAIR      27  21  78 CALM      29.55R
MONUMENT HILL  FAIR      36  19  51 SE10      29.57S
TRINIDAD       FAIR      33  22  63 NW9       29.54F WCI  25
$$

COZ042>045-048>051-090-091-200200-
...NORTHEAST COLORADO...

CITY           SKY/WX    TMP DP  RH WIND       PRES   REMARKS
GREELEY ARPT   FAIR      38  28  67 E3        29.53R
AKRON          FAIR      39  23  52 S5        29.51S
BURLINGTON     FOG       32  31  96 SE10      29.54R VSB 3/4 WCI  24
WRAY           NOT AVBL
STERLING       FAIR      34  28  80 NW5       29.50S WCI  30
HOLYOKE        FAIR      34  28  80 S9        29.52S WCI  26
FORT MORGAN    FAIR      40  23  50 CALM      29.53R
$$

COZ086-089-092>099-200200-
...SOUTHEAST COLORADO...

CITY           SKY/WX    TMP DP  RH WIND       PRES   REMARKS
PUEBLO         FAIR      41  25  53 E7        29.50S
LA JUNTA       FAIR      37  26  64 E7        29.51S
LAMAR          FAIR      32  24  72 S5        29.53R WCI  27
SPRINGFIELD      N/A     38  20  48 NE5       29.54S
$$



USA.gov is the U.S. government's official web portal to all federal, state and local government web resources and services.